Location: ???????
(55.4362°N, 38.1183°E)
Time: 03:34:46
(UTC+00:00)

Cosmos 2369 Rocket - Pass Details

Date: 17 June 2021
Orbit: 827 x 854 km, 71.0° (Epoch: 26 July)

Event Time Altitude Azimuth Distance (km) Brightness Sun altitude
Rises 19:46:49 0° 319° (NW) 3,431 7.1 -8.2°
Reaches altitude 10° 19:49:45 10° 333° (NNW) 2,495 6.4 -8.4°
Maximum altitude 19:54:25 25° 28° (NNE) 1,671 4.3 -8.6°
Drops below altitude 10° 19:59:05 10° 82° (E) 2,491 4.5 -8.9°
Sets 20:02:00 0° 96° (E) 3,423 5.1 -9.0°
